Des Moines, IA

3:41 PM CST on February 24, 2017 (GMT -0600)
Des Moines International

Weather History for KDSM - July, 2014

Change the Weather History Date:

Sunday, July 20, 2014

  Actual Average Record
Temperature  
Mean Temperature 76 °F 76 °F  
Max Temperature 86 °F 86 °F 108 °F (1934)
Min Temperature 65 °F 67 °F 53 °F (1880)
Degree Days  
Heating Degree Days 0 0  
Month to date heating degree days 2 0  
Since 1 June heating degree days 2 17  
Since 1 July heating degree days 2 0  
Cooling Degree Days 11 11  
Month to date cooling degree days 145 227  
Year to date cooling degree days 532 524  
Since 1 June cooling degree days 401 448  
Growing Degree Days 25 (Base 50)    
Moisture  
Dew Point 63 °F    
Average Humidity 69    
Maximum Humidity 87    
Minimum Humidity 51    
Precipitation  
Precipitation 0.00 in 0.14 in 2.41 in (1907)
Month to date precipitation 2.26 3.00  
Year to date precipitation 20.90 21.12  
Snow  
Snow 0.00 in 0.00 in - ()
Month to date snowfall 0.0 0.0  
Since 1 June snowfall 0.0 0.0  
Since 1 July snowfall 0.0 0.0  
Snow Depth 0.00 in    
Sea Level Pressure  
Sea Level Pressure 29.92 in    
Wind  
Wind Speed 12 mph (South)    
Max Wind Speed 23 mph    
Max Gust Speed 28 mph    
Visibility 10 miles    
Events      
T = Trace of Precipitation, MM = Missing Value Source: NWS Daily Summary

Daily Weather History Graph

Daily Weather History Graph

Search for Another Location

Airport or City:

Trip Planner

Search our weather history database for the weather conditions in past years. The results will help you decide how hot, cold, wet, or windy it might be!

Date:

Astronomy

Jul. 20, 2014 Rise Set
Actual Time 5:58 AM CDT 8:43 PM CDT
Civil Twilight 5:25 AM CDT 9:15 PM CDT
Nautical Twilight 4:44 AM CDT 9:56 PM CDT
Astronomical Twilight 3:57 AM CDT 10:43 PM CDT
Moon 1:11 AM CDT (7/20) 3:26 PM CDT (7/20)
Length of Visible Light 15h 50m
Length of Day
14h 45m
Waning Crescent, 33% of the Moon is Illuminated
Jul 20
Waning Crescent
Jul 26
New
Aug 3
First Quarter
Aug 10
Full
Aug 17
Last Quarter

Hourly Weather History & Observations

Time (CDT) Temp. Heat Index Dew Point Humidity Pressure Visibility Wind Dir Wind Speed Gust Speed Precip Events Conditions
12:54 AM 69.1 °F - 62.1 °F 78% 29.94 in 10.0 mi South 5.8 mph - N/A   Partly Cloudy
1:54 AM 68.0 °F - 61.0 °F 78% 29.94 in 10.0 mi SSW 5.8 mph - N/A   Scattered Clouds
2:54 AM 66.9 °F - 61.0 °F 81% 29.94 in 10.0 mi SSE 8.1 mph - N/A   Scattered Clouds
3:54 AM 66.0 °F - 61.0 °F 84% 29.94 in 10.0 mi South 4.6 mph - N/A   Scattered Clouds
4:54 AM 64.9 °F - 61.0 °F 87% 29.95 in 10.0 mi South 6.9 mph - N/A   Scattered Clouds
5:54 AM 64.9 °F - 60.1 °F 84% 29.96 in 10.0 mi South 6.9 mph - N/A   Scattered Clouds
6:54 AM 64.9 °F - 61.0 °F 87% 29.96 in 8.0 mi South 8.1 mph - N/A   Mostly Cloudy
7:54 AM 68.0 °F - 62.1 °F 81% 29.97 in 10.0 mi South 8.1 mph - N/A   Scattered Clouds
8:54 AM 72.0 °F - 63.0 °F 73% 29.97 in 10.0 mi South 9.2 mph - N/A   Scattered Clouds
9:54 AM 75.9 °F - 64.0 °F 67% 29.96 in 10.0 mi South 10.4 mph - N/A   Scattered Clouds
10:54 AM 79.0 °F - 64.0 °F 60% 29.94 in 10.0 mi South 17.3 mph 24.2 mph N/A   Scattered Clouds
11:54 AM 82.0 °F 83.4 °F 64.0 °F 54% 29.93 in 10.0 mi South 16.1 mph 21.9 mph N/A   Partly Cloudy
12:54 PM 84.0 °F 85.4 °F 64.0 °F 51% 29.91 in 10.0 mi South 18.4 mph 23.0 mph N/A   Partly Cloudy
1:54 PM 84.9 °F 86.6 °F 64.9 °F 51% 29.90 in 10.0 mi South 17.3 mph 26.5 mph N/A   Clear
2:54 PM 84.9 °F 86.6 °F 64.9 °F 51% 29.90 in 10.0 mi South 17.3 mph 23.0 mph N/A   Partly Cloudy
3:54 PM 84.9 °F 86.6 °F 64.9 °F 51% 29.89 in 10.0 mi South 16.1 mph - N/A   Partly Cloudy
4:54 PM 84.9 °F 86.6 °F 64.9 °F 51% 29.88 in 10.0 mi South 18.4 mph - N/A   Partly Cloudy
5:54 PM 84.9 °F 86.6 °F 64.9 °F 51% 29.87 in 10.0 mi South 16.1 mph - N/A   Clear
6:54 PM 82.9 °F 84.6 °F 64.9 °F 54% 29.87 in 10.0 mi SSE 17.3 mph - N/A   Clear
7:54 PM 81.0 °F 83.0 °F 66.0 °F 60% 29.88 in 10.0 mi South 10.4 mph - N/A   Clear
8:54 PM 78.1 °F - 64.9 °F 64% 29.89 in 10.0 mi South 12.7 mph - N/A   Clear
9:54 PM 77.0 °F - 64.9 °F 66% 29.91 in 10.0 mi South 8.1 mph - N/A   Clear
10:54 PM 75.0 °F - 66.0 °F 73% 29.92 in 10.0 mi South 8.1 mph - N/A   Clear
11:54 PM 73.9 °F - 66.0 °F 76% 29.91 in 10.0 mi South 10.4 mph - N/A   Clear